Regional Weather Roundup
Issued by NWS

Home | Current Version | Previous Version | Graphics & Text | Print | Product List | Glossary Off
Versions: 1 2 3 4 5 6 7 8 9 10 11 12 13 14 15 16 17 18 19 20 21 22 23 24 25 26 27 28 29 30 31 32 33 34 35 36 37 38 39 40 41 42 43 44 45 46 47 48 49 50

000
ASUS43 KDMX 171906
RWRIA

WEATHER ROUNDUP FOR IOWA
NATIONAL WEATHER SERVICE DES MOINES IA
100 PM CST SAT FEB 17 2018

NOTE: "FAIR" INDICATES FEW OR NO CLOUDS BELOW 12,000 FEET WITH NO
SIGNIFICANT WEATHER AND/OR OBSTRUCTIONS TO VISIBILITY.

* - THESE STATIONS ARE NOT NWS STATIONS...THUS NOT UNDER NWS
QUALITY CONTROL.  THEY ALSO DO NOT REPORT WEATHER SUCH
AS PRECIPITATION OR FOG.

IAZ001>003-012>014-020>022-031>034-043>046-172000-
   NORTHWEST IOWA

CITY           SKY/WX    TMP DP  RH WIND       PRES   REMARKS
CARROLL *      SUNNY     37  32  81 W17       29.96S WCI  28
CHEROKEE *     CLOUDY    33  28  81 NW13G22   29.99R WCI  24
DENISON *      SUNNY     37  30  75 NW14G23   30.00R WCI  29
LE MARS *      CLOUDY    34  27  75 NW10G17   30.01R WCI  26
ORANGE CITY *  LGT SNOW  30  28  93 NW16      29.98S WCI  19
SHELDON *      LGT SNOW  28  28 100 W15       29.95F WCI  17
SIOUX CITY     SUNNY     35  26  69 NW14      30.02R WCI  26
SPENCER        CLOUDY    31  26  82 W22       29.95S WCI  18
STORM LAKE *   SUNNY     32  28  86 NW20      29.96R WCI  20
$$

IAZ055>058-069>071-079>083-090>094-172000-
   SOUTHWEST IOWA

CITY           SKY/WX    TMP DP  RH WIND       PRES   REMARKS
ATLANTIC *     SUNNY     39  28  65 NW14G21   29.99R WCI  31
AUDUBON *      SUNNY     39  30  70 W12       29.99R WCI  32
CLARINDA *     SUNNY     45  30  57 NW14G22   30.04R
COUNCIL BLFS * SUNNY     43  28  56 NW14      30.01S
CRESTON *      SUNNY     41  28  60 NW18      29.99R
HARLAN  *      SUNNY     41  30  65 NW18      30.04R
LAMONI         SUNNY     43  24  47 NW18G25   29.96S
RED OAK *      SUNNY     45  28  53 NW13G21   30.02R
SHENANDOAH *   SUNNY     46  27  46 NW14      30.03S
$$

IAZ047>049-059>061-072>074-084-172000-
   CENTRAL IOWA

CITY           SKY/WX    TMP DP  RH WIND       PRES   REMARKS
AMES           CLOUDY    32  25  75 W16       29.96R WCI  21
ANKENY *       CLOUDY    34  28  80 W16G24    29.97R WCI  23
BOONE *        CLOUDY    32  27  80 NW12G18   29.94S WCI  23
CHARITON *     SUNNY     39  25  56 W17       29.96R WCI  30
DES MOINES     PTSUNNY   35  27  72 W20       29.96S WCI  24
GRINNELL*      MOSUNNY   31  26  82 W12       29.94F WCI  21
KNOXVILLE *    CLOUDY    37  25  60 W20       29.94S WCI  27
MARSHALLTOWN   PTSUNNY   29  25  85 W12       29.93S WCI  19
NEWTON *       CLOUDY    32  27  80 W17G23    29.95S WCI  21
PELLA *        PTSUNNY   35  28  74 W15G23    29.96S WCI  25
PERRY *        FAIR      34  29  81 NW12      29.97S WCI  25
$$

IAZ004>006-015-016-023>025-035-036-172000-
   NORTH CENTRAL IOWA

CITY           SKY/WX    TMP DP  RH WIND       PRES   REMARKS
ALGONA *       PTSUNNY   30 N/A N/A NW10G18   29.94S WCI  21
CLARION *      CLOUDY    28  28 100 W16       29.95R WCI  17
ESTHERVILLE    MOSUNNY   29  24  82 W20       29.93R WCI  16
FORT DODGE *   CLOUDY    33  24  69 NW13      29.96R WCI  24
MASON CITY     CLOUDY    28  23  81 W16       29.92S WCI  16
WEBSTER CITY * CLOUDY    30  25  80 W18       29.93R WCI  18
IOWA FALLS *   FAIR      30  24  80 W17       29.94R WCI  18
$$

IAZ007>011-017>019-026>030-037>042-050>054-066-172000-
   NORTHEAST IOWA

CITY           SKY/WX    TMP DP  RH WIND       PRES   REMARKS
CEDAR RAPIDS   LGT SNOW  29  26  89 SW7       29.91F VSB 1   WCI  22
CHARLES CITY * PTSUNNY   27  27 100 SW13      29.91F WCI  16
CLINTON *      SNOW      31  28  89 SW10      29.94F VSB 1/4 WCI  22
DECORAH *      LGT SNOW  25  23  93 SW8       29.89F WCI  16
DUBUQUE        SNOW      25  23  92 SW8       29.90F VSB 1/4 WCI  16
MONTICELLO *   LGT SNOW  28  27  93 SW5       29.92F VSB 3/4 WCI  23
OELWEIN *      LGT SNOW  27  27 100 SW8       29.91F WCI  18
WATERLOO       CLOUDY    27  23  85 W13       29.93F WCI  16
$$

IAZ064-065-067-068-078-172000-
   EAST CENTRAL IOWA

CITY           SKY/WX    TMP DP  RH WIND       PRES   REMARKS
DAVENPORT      HVY SNOW  31  28  89 SW10      29.95S VSB 1/4 WCI  22
IOWA CITY      SNOW      31  27  85 SW7       29.95F VSB 1/2 WCI  24
MT. PLEASANT * LGT SNOW  32  32 100 SW10      29.95F VSB 1   WCI  24
MUSCATINE *    SNOW      32  30  93 SW9       29.95F VSB 1/4 WCI  24
QUAD CITIES    SNOW      32  30  92 SW7       29.93F VSB 1/4 WCI  26
$$

IAZ062-063-075>077-085>089-095>099-172000-
   SOUTHEAST IOWA

CITY           SKY/WX    TMP DP  RH WIND       PRES   REMARKS
BURLINGTON     LGT SNOW  32  30  92 SW15      29.94F FOG     WCI  22
FAIRFIELD *    PTSUNNY   34  30  86 SW12      29.94F WCI  25
FORT MADISON * LGT SNOW  32  32 100 SW12      29.96F WCI  23
KEOKUK *       LGT SNOW  34  32  93 SW10      29.95F WCI  26
OSKALOOSA *    FAIR      32  28  82 W16G24    29.95F WCI  22
OTTUMWA        MOSUNNY   37  28  70 W15G26    29.94S WCI  28
WASHINGTON *   LGT SNOW  32  32 100 W12       29.95F WCI  23
$$

ABBREVIATIONS USED IN REMARKS
   TC - TEMPERATURES IN CELSIUS
  WCI - WIND CHILL INDEX
   HX - HEAT INDEX
  VSB - VISIBILITY
$$




USA.gov is the U.S. government's official web portal to all federal, state and local government web resources and services.